Date String (YYYY-MM-DD hh:mm:ss) UTC,Instrument flags,Ambient pressure (hPa),Sample flow (lpm),Bypass flow (lpm),Sample temperature (°C),Ambient temperature (°C),ASC tube jacket temperature (°C),LED temperature (°C),Box temperature (°C),Sample RH (%),Span deviation,Mass concentration (μg/m³),Mass concentration (μg/m³),Mass concentration (μg/m³)
DateTimeUTC,F1_M11,P_M11,Q1_M11,Q2_M11,T1_M11,T2_M11,T3_M11,T4_M11,T5_M11,U1_M11,ZSPAN_M11,X0_M11,X2_M11,X1_M11
2023-01-29 18:00:00,,0824.1,5.00,0.00,22.8,21.4,00.0,31.7,24.5,05.2,0000.1,0008.96,0004.49,0003.88
2023-01-29 18:01:00,,0824.1,4.99,0.00,22.8,21.2,00.0,31.7,24.4,05.3,-000.3,0008.44,0004.46,0003.87
2023-01-29 18:02:00,,0824.1,5.00,0.00,22.7,21.0,00.0,31.7,24.3,05.3,-000.1,0008.38,0004.48,0003.87
2023-01-29 18:03:00,,0824.1,5.00,0.00,22.7,21.0,00.0,31.7,24.3,05.2,-000.1,0008.37,0004.48,0003.87
2023-01-29 18:04:00,,0824.1,5.01,0.00,22.7,21.7,00.0,31.6,24.5,05.2,0000.1,0008.40,0004.48,0003.85
2023-01-29 18:05:00,,0824.1,5.00,0.00,22.8,22.7,00.0,31.6,24.7,05.2,0001.0,0008.43,0004.49,0003.85
2023-01-29 18:06:00,,0824.1,5.00,0.00,23.0,23.2,00.0,31.6,24.9,05.1,0001.6,0008.42,0004.48,0003.84
2023-01-29 18:07:00,,0824.2,5.00,0.00,23.0,22.8,00.0,31.7,24.9,05.1,0001.5,0008.21,0004.47,0003.84
2023-01-29 18:08:00,,0824.1,5.01,0.00,23.0,22.3,00.0,31.7,24.8,05.1,0000.9,0008.08,0004.48,0003.85
2023-01-29 18:09:00,,0824.0,4.99,0.00,22.9,21.9,00.0,31.7,24.6,05.1,0001.2,0008.07,0004.47,0003.85
2023-01-29 18:10:00,,0824.0,4.99,0.00,22.9,21.6,00.0,31.7,24.5,05.2,0001.3,0008.03,0004.45,0003.86
2023-01-29 18:11:00,,0824.0,4.99,0.00,22.8,21.3,00.0,31.7,24.4,05.2,0001.4,0008.00,0004.44,0003.87
2023-01-29 18:12:00,,0824.0,4.99,0.00,22.8,21.2,00.0,31.7,24.4,05.2,0001.5,0007.97,0004.44,0003.88
2023-01-29 18:13:00,,0824.0,4.99,0.00,22.8,21.0,00.0,31.7,24.3,05.2,0001.6,0007.99,0004.46,0003.88
2023-01-29 18:14:00,,0824.0,4.98,0.00,22.7,20.9,00.0,31.7,24.3,05.2,0001.4,0008.01,0004.48,0003.90
2023-01-29 18:15:00,,0823.9,5.01,0.00,22.7,21.5,00.0,31.6,24.4,05.2,0001.1,0008.03,0004.50,0003.93
2023-01-29 18:16:00,,0823.9,5.00,0.00,22.8,22.6,00.0,31.6,24.7,05.2,0001.3,0008.09,0004.51,0003.93
2023-01-29 18:17:00,,0824.0,4.98,0.00,22.9,22.9,00.0,31.6,24.8,05.3,0001.0,0008.09,0004.52,0003.94
2023-01-29 18:18:00,,0824.0,5.01,0.00,22.9,22.4,00.0,31.7,24.7,05.3,0001.0,0008.05,0004.50,0003.94
2023-01-29 18:19:00,,0824.0,4.99,0.00,22.9,21.9,00.0,31.7,24.6,05.3,0001.5,0007.62,0004.49,0003.95
2023-01-29 18:20:00,,0824.0,5.00,0.00,22.8,21.6,00.0,31.7,24.5,05.3,0001.7,0007.61,0004.52,0003.95
2023-01-29 18:21:00,,0824.0,5.00,0.00,22.8,21.3,00.0,31.7,24.4,05.4,0001.9,0007.57,0004.53,0003.96
2023-01-29 18:22:00,,0824.0,5.01,0.00,22.7,21.1,00.0,31.7,24.3,05.3,0001.5,0007.57,0004.53,0003.98
2023-01-29 18:23:00,,0824.0,5.00,0.00,22.7,21.0,00.0,31.7,24.3,05.3,0001.3,0007.67,0004.57,0003.99
2023-01-29 18:24:00,,0824.0,5.01,0.00,22.7,21.0,00.0,31.6,24.3,05.4,0001.8,0007.64,0004.57,0004.00
2023-01-29 18:25:00,,0824.0,5.01,0.00,22.7,21.9,00.0,31.6,24.5,05.3,0001.5,0007.64,0004.55,0003.99
2023-01-29 18:26:00,,0823.9,5.00,0.00,22.8,22.9,00.0,31.6,24.8,05.3,0001.0,0007.66,0004.55,0003.98
2023-01-29 18:27:00,,0824.0,4.99,0.00,22.9,23.3,00.0,31.6,24.9,05.2,0000.0,0007.93,0004.55,0003.99
2023-01-29 18:28:00,,0824.0,5.00,0.00,23.0,22.7,00.0,31.7,24.8,05.2,0000.0,0008.11,0004.60,0004.02
2023-01-29 18:29:00,,0823.9,5.00,0.00,22.9,22.2,00.0,31.7,24.7,05.2,0000.0,0008.16,0004.64,0004.05
2023-01-29 18:30:00,,0823.7,4.99,0.00,22.9,21.8,00.0,31.7,24.6,05.3,0000.0,0008.18,0004.65,0004.05
2023-01-29 18:31:00,,0823.7,5.00,0.00,22.8,21.4,00.0,31.7,24.5,05.2,0000.0,0008.14,0004.65,0004.06
2023-01-29 18:32:00,,0823.8,5.02,0.00,22.8,21.2,00.0,31.7,24.4,05.3,0000.2,0008.21,0004.68,0004.07
2023-01-29 18:33:00,,0823.8,5.00,0.00,22.7,21.0,00.0,31.7,24.3,05.3,0000.3,0008.28,0004.71,0004.08
2023-01-29 18:34:00,,0823.8,4.99,0.00,22.7,20.8,00.0,31.7,24.2,05.3,0000.6,0008.26,0004.70,0004.09
2023-01-29 18:35:00,,0823.7,5.00,0.00,22.6,21.1,00.0,31.6,24.3,05.3,0000.2,0008.22,0004.68,0004.08
2023-01-29 18:36:00,,0823.7,5.00,0.00,22.7,22.1,00.0,31.6,24.5,05.3,0000.1,0008.11,0004.65,0004.08
2023-01-29 18:37:00,,0823.7,5.02,0.00,22.8,23.0,00.0,31.6,24.8,05.3,0000.5,0008.06,0004.64,0004.10
2023-01-29 18:38:00,,0823.7,4.99,0.00,22.9,22.9,00.0,31.6,24.8,05.2,0000.6,0007.74,0004.64,0004.10
2023-01-29 18:39:00,,0823.7,5.00,0.00,22.9,22.4,00.0,31.7,24.7,05.2,0000.6,0007.50,0004.61,0004.10
2023-01-29 18:40:00,,0823.7,5.02,0.00,22.8,21.9,00.0,31.7,24.5,05.2,0001.2,0007.55,0004.62,0004.10
2023-01-29 18:41:00,,0823.7,5.00,0.00,22.8,21.5,00.0,31.7,24.4,05.2,0001.1,0007.58,0004.64,0004.12
2023-01-29 18:42:00,,0823.8,5.00,0.00,22.7,21.2,00.0,31.7,24.3,05.2,0001.0,0007.51,0004.62,0004.11
2023-01-29 18:43:00,,0823.7,5.00,0.00,22.7,21.0,00.0,31.6,24.2,05.3,0001.5,0007.47,0004.61,0004.12
2023-01-29 18:44:00,,0823.7,5.00,0.00,22.7,20.9,00.0,31.6,24.2,05.3,0001.6,0007.48,0004.63,0004.14
2023-01-29 18:45:00,,0823.7,5.01,0.00,22.6,20.7,00.0,31.6,24.1,05.3,0001.9,0007.42,0004.61,0004.14
2023-01-29 18:46:00,,0823.7,5.01,0.00,22.6,21.4,00.0,31.6,24.3,05.3,0002.7,0007.53,0004.67,0004.18
2023-01-29 18:47:00,,0823.7,4.98,0.00,22.7,22.5,00.0,31.5,24.6,05.3,0002.6,0007.60,0004.70,0004.19
2023-01-29 18:48:00,,0823.7,5.01,0.00,22.8,23.3,00.0,31.6,24.8,05.2,0002.4,0007.64,0004.72,0004.20
2023-01-29 18:49:00,,0823.7,5.00,0.00,22.9,22.9,00.0,31.6,24.8,05.2,0001.9,0007.67,0004.74,0004.21
2023-01-29 18:50:00,,0823.7,5.01,0.00,22.9,22.3,00.0,31.6,24.6,05.2,0001.2,0007.68,0004.76,0004.23
2023-01-29 18:51:00,,0823.7,5.00,0.00,22.8,21.8,00.0,31.6,24.5,05.3,0000.8,0007.80,0004.80,0004.24
2023-01-29 18:52:00,,0823.7,5.00,0.00,22.8,21.5,00.0,31.7,24.4,05.3,0001.2,0007.85,0004.82,0004.24
2023-01-29 18:53:00,,0823.7,4.99,0.00,22.7,21.2,00.0,31.6,24.3,05.3,0001.9,0007.86,0004.85,0004.26
2023-01-29 18:54:00,,0823.6,4.98,0.00,22.7,21.0,00.0,31.6,24.2,05.3,0002.0,0007.85,0004.86,0004.29
2023-01-29 18:55:00,,0823.6,5.00,0.00,22.6,20.8,00.0,31.6,24.2,05.3,0002.1,0007.86,0004.86,0004.29
2023-01-29 18:56:00,,0823.6,5.00,0.00,22.6,20.8,00.0,31.6,24.2,05.3,0002.3,0007.88,0004.87,0004.29
2023-01-29 18:57:00,,0823.7,5.00,0.00,22.6,21.8,00.0,31.5,24.4,05.2,0001.4,0007.86,0004.86,0004.29
2023-01-29 18:58:00,,0823.7,5.00,0.00,22.8,22.8,00.0,31.5,24.7,05.2,0001.9,0007.89,0004.87,0004.29
2023-01-29 18:59:00,,0823.7,4.99,0.00,22.8,22.6,00.0,31.6,24.7,05.1,0001.8,0007.96,0004.89,0004.30
